| time (UTC) | temp F | wind direction | speed knots | gust knots | rain 1hr in | rain 24hr in | rain mn in | humidity % | barometer mb |
| 20260906220554 | 96 | 287 | 0.9 | 9.6 | 0.00 | 0.00 | 0.00 | 46 | 1011.2 |
| 20260906220109 | 96 | 80 | 2.6 | 9.6 | 0.00 | 0.00 | 0.00 | 45 | 1011.2 |
| 20260906215619 | 96 | 336 | 2.6 | 9.6 | 0.00 | 0.00 | 0.00 | 44 | 1011.0 |
| 20260906215053 | 96 | 313 | 1.7 | 7.8 | 0.00 | 0.00 | 0.00 | 46 | 1010.8 |
| 20260906214604 | 96 | 288 | 3.5 | 10.4 | 0.00 | 0.00 | 0.00 | 47 | 1010.9 |
| 20260906214056 | 96 | 46 | 3.5 | 10.4 | 0.00 | 0.00 | 0.00 | 48 | 1010.7 |
| 20260906213553 | 96 | 11 | 0.9 | 3.5 | 0.00 | 0.00 | 0.00 | 48 | 1010.7 |
| 20260906213102 | 96 | 238 | 0.0 | 7.0 | 0.00 | 0.00 | 0.00 | 48 | 1010.8 |
| 20260906212552 | 95 | 303 | 3.5 | 7.0 | 0.00 | 0.00 | 0.00 | 47 | 1010.7 |
| 20260906212057 | 95 | 318 | 0.9 | 7.8 | 0.00 | 0.00 | 0.00 | 48 | 1010.7 |
| 20260906211601 | 95 | 284 | 0.9 | 7.8 | 0.00 | 0.00 | 0.00 | 48 | 1010.7 |
| 20260906211052 | 95 | 352 | 2.6 | 8.7 | 0.00 | 0.00 | 0.00 | 48 | 1010.7 |
| 20260906210553 | 95 | 65 | 4.3 | 8.7 | 0.00 | 0.00 | 0.00 | 49 | 1010.6 |
| 20260906205553 | 95 | 336 | 0.0 | 1.7 | 0.00 | 0.00 | 0.00 | 49 | 1010.6 |
| 20260906205053 | 95 | 347 | 0.0 | 3.5 | 0.00 | 0.00 | 0.00 | 48 | 1010.8 |
| 20260906204616 | 95 | 333 | 0.0 | 3.5 | 0.00 | 0.00 | 0.00 | 48 | 1010.8 |
| 20260906204055 | 95 | 265 | 0.9 | 5.2 | 0.00 | 0.00 | 0.00 | 48 | 1010.9 |
| 20260906203553 | 95 | 11 | 1.7 | 6.1 | 0.00 | 0.00 | 0.00 | 47 | 1011.0 |
| 20260906203104 | 96 | 9 | 2.6 | 6.1 | 0.00 | 0.00 | 0.00 | 47 | 1011.0 |
| 20260906202552 | 95 | 360 | 1.7 | 6.1 | 0.00 | 0.00 | 0.00 | 48 | 1011.0 |
| 20260906202052 | 95 | 271 | 0.9 | 7.8 | 0.00 | 0.00 | 0.00 | 48 | 1011.1 |
| 20260906201605 | 95 | 0 | 0.9 | 7.8 | 0.00 | 0.00 | 0.00 | 47 | 1011.2 |
| 20260906201052 | 95 | 315 | 1.7 | 6.1 | 0.00 | 0.00 | 0.00 | 49 | 1011.3 |
| 20260906200556 | 95 | 65 | 0.9 | 7.8 | 0.00 | 0.00 | 0.00 | 48 | 1011.3 |
| 20260906195553 | 95 | 5 | 1.7 | 8.7 | 0.00 | 0.00 | 0.00 | 49 | 1011.7 |
| 20260906195054 | 95 | 320 | 3.5 | 8.7 | 0.00 | 0.00 | 0.00 | 49 | 1011.7 |
| 20260906194606 | 95 | 81 | 1.7 | 7.0 | 0.00 | 0.00 | 0.00 | 49 | 1011.7 |
| 20260906194056 | 95 | 271 | 1.7 | 7.8 | 0.00 | 0.00 | 0.00 | 51 | 1011.8 |
| 20260906193553 | 95 | 325 | 1.7 | 7.8 | 0.00 | 0.00 | 0.00 | 50 | 1011.8 |
| 20260906193104 | 95 | 47 | 2.6 | 7.8 | 0.00 | 0.00 | 0.00 | 50 | 1012.0 |
| 20260906192555 | 95 | 0 | 1.7 | 7.0 | 0.00 | 0.00 | 0.00 | 49 | 1011.9 |
| 20260906192052 | 95 | 298 | 0.9 | 5.2 | 0.00 | 0.00 | 0.00 | 51 | 1012.1 |
| 20260906191613 | 94 | 323 | 0.0 | 5.2 | 0.00 | 0.00 | 0.00 | 50 | 1012.1 |
| 20260906191054 | 94 | 0 | 0.9 | 6.1 | 0.00 | 0.00 | 0.00 | 51 | 1012.2 |
| 20260906190556 | 94 | 52 | 1.7 | 6.1 | 0.00 | 0.00 | 0.00 | 51 | 1012.4 |
| 20260906190105 | 94 | 294 | 1.7 | 5.2 | 0.00 | 0.00 | 0.00 | 51 | 1012.5 |
| 20260906185552 | 94 | 11 | 0.9 | 4.3 | 0.00 | 0.02 | 0.00 | 54 | 1012.4 |
| 20260906185054 | 93 | 94 | 0.9 | 4.3 | 0.00 | 0.02 | 0.00 | 55 | 1012.5 |
| 20260906184606 | 93 | 0 | 1.7 | 5.2 | 0.00 | 0.02 | 0.00 | 55 | 1012.6 |
| 20260906184052 | 93 | 309 | 2.6 | 5.2 | 0.00 | 0.02 | 0.00 | 54 | 1012.6 |
| 20260906183553 | 93 | 84 | 1.7 | 8.7 | 0.00 | 0.02 | 0.00 | 56 | 1012.8 |
| 20260906183105 | 93 | 13 | 2.6 | 8.7 | 0.00 | 0.02 | 0.00 | 54 | 1012.8 |
| 20260906182556 | 93 | 13 | 0.9 | 7.0 | 0.00 | 0.02 | 0.00 | 55 | 1012.8 |
| 20260906182055 | 93 | 306 | 1.7 | 6.1 | 0.00 | 0.02 | 0.00 | 56 | 1012.9 |
| 20260906181603 | 92 | 296 | 0.9 | 6.1 | 0.00 | 0.02 | 0.00 | 56 | 1012.9 |
| 20260906181053 | 92 | 302 | 2.6 | 6.1 | 0.00 | 0.02 | 0.00 | 57 | 1013.1 |
| 20260906180552 | 92 | 0 | 0.0 | 3.5 | 0.00 | 0.02 | 0.00 | 57 | 1013.1 |
| 20260906180115 | 92 | 300 | 0.0 | 7.8 | 0.00 | 0.02 | 0.00 | 57 | 1013.3 |
| 20260906175557 | 92 | 0 | 1.7 | 7.8 | 0.00 | 0.02 | 0.00 | 58 | 1013.3 |
| 20260906175052 | 92 | 0 | 1.7 | 4.3 | 0.00 | 0.02 | 0.00 | 58 | 1013.4 |
| 20260906174603 | 92 | 352 | 0.9 | 4.3 | 0.00 | 0.02 | 0.00 | 57 | 1013.5 |
| 20260906174054 | 91 | 5 | 0.9 | 2.6 | 0.00 | 0.02 | 0.00 | 58 | 1013.6 |
| 20260906173552 | 91 | 0 | 0.0 | 3.5 | 0.00 | 0.02 | 0.00 | 59 | 1013.6 |
| 20260906173105 | 91 | 228 | 0.9 | 3.5 | 0.00 | 0.02 | 0.00 | 59 | 1013.6 |
| 20260906172553 | 91 | 360 | 0.0 | 2.6 | 0.00 | 0.02 | 0.00 | 60 | 1013.7 |
| 20260906172055 | 90 | 45 | 0.0 | 5.2 | 0.00 | 0.02 | 0.00 | 59 | 1013.8 |
| 20260906171604 | 90 | 92 | 1.7 | 5.2 | 0.00 | 0.02 | 0.00 | 59 | 1013.9 |
| 20260906171052 | 90 | 0 | 0.9 | 6.1 | 0.00 | 0.02 | 0.00 | 60 | 1014.0 |
| 20260906170553 | 90 | 360 | 1.7 | 6.1 | 0.00 | 0.02 | 0.00 | 59 | 1013.9 |
| 20260906170110 | 90 | 302 | 1.7 | 4.3 | 0.00 | 0.02 | 0.00 | 58 | 1014.0 |
| 20260906165553 | 90 | 296 | 0.9 | 4.3 | 0.00 | 0.02 | 0.00 | 61 | 1014.1 |
| 20260906165056 | 89 | 322 | 0.9 | 4.3 | 0.00 | 0.02 | 0.00 | 61 | 1014.1 |
| 20260906164604 | 89 | 297 | 0.9 | 4.3 | 0.00 | 0.02 | 0.00 | 61 | 1014.2 |
| 20260906164053 | 89 | 53 | 1.7 | 6.1 | 0.00 | 0.02 | 0.00 | 61 | 1014.1 |
| 20260906163554 | 89 | 0 | 0.9 | 6.1 | 0.00 | 0.02 | 0.00 | 62 | 1014.1 |
| 20260906163123 | 88 | 52 | 1.7 | 6.1 | 0.00 | 0.02 | 0.00 | 62 | 1014.2 |
| 20260906162553 | 88 | 124 | 0.0 | 5.2 | 0.00 | 0.02 | 0.00 | 62 | 1014.3 |
| 20260906162052 | 88 | 13 | 0.9 | 4.3 | 0.00 | 0.02 | 0.00 | 62 | 1014.4 |
| 20260906161610 | 88 | 334 | 0.0 | 4.3 | 0.00 | 0.02 | 0.00 | 62 | 1014.5 |
| 20260906161053 | 88 | 330 | 0.9 | 4.3 | 0.00 | 0.02 | 0.00 | 62 | 1014.5 |
| 20260906160553 | 88 | 0 | 1.7 | 7.0 | 0.00 | 0.02 | 0.00 | 62 | 1014.5 |
| 20260906160100 | 88 | 0 | 1.7 | 7.0 | 0.00 | 0.02 | 0.00 | 62 | 1014.5 |
| 20260906155553 | 88 | 309 | 0.9 | 7.0 | 0.00 | 0.02 | 0.00 | 62 | 1014.5 |
| 20260906155056 | 87 | 344 | 1.7 | 7.0 | 0.00 | 0.02 | 0.00 | 62 | 1014.6 |
| 20260906154601 | 87 | 61 | 0.9 | 7.0 | 0.00 | 0.02 | 0.00 | 64 | 1014.6 |
| 20260906154053 | 87 | 24 | 1.7 | 7.0 | 0.00 | 0.02 | 0.00 | 64 | 1014.6 |
| 20260906153555 | 87 | 64 | 2.6 | 7.0 | 0.00 | 0.02 | 0.00 | 64 | 1014.6 |
| 20260906153118 | 86 | 0 | 0.9 | 5.2 | 0.00 | 0.02 | 0.00 | 65 | 1014.6 |
| 20260906152555 | 86 | 0 | 0.0 | 5.2 | 0.00 | 0.02 | 0.00 | 65 | 1014.5 |
| 20260906152053 | 86 | 304 | 0.9 | 4.3 | 0.00 | 0.02 | 0.00 | 65 | 1014.5 |
| 20260906151609 | 86 | 0 | 0.9 | 4.3 | 0.00 | 0.02 | 0.00 | 65 | 1014.6 |
| 20260906151056 | 85 | 0 | 0.0 | 3.5 | 0.00 | 0.02 | 0.00 | 65 | 1014.6 |
| 20260906150552 | 85 | 346 | 0.0 | 3.5 | 0.00 | 0.02 | 0.00 | 66 | 1014.5 |
| 20260906150106 | 85 | 40 | 1.7 | 3.5 | 0.00 | 0.02 | 0.00 | 68 | 1014.6 |
| 20260906145555 | 84 | 19 | 0.0 | 3.5 | 0.00 | 0.02 | 0.00 | 70 | 1014.6 |
| 20260906145054 | 84 | 333 | 1.7 | 4.3 | 0.00 | 0.02 | 0.00 | 70 | 1014.6 |
| 20260906144602 | 83 | 360 | 0.0 | 4.3 | 0.00 | 0.02 | 0.00 | 73 | 1014.7 |
| 20260906144055 | 83 | 332 | 1.7 | 4.3 | 0.00 | 0.02 | 0.00 | 73 | 1014.5 |
| 20260906143554 | 82 | 24 | 0.9 | 4.3 | 0.00 | 0.02 | 0.00 | 74 | 1014.7 |
| 20260906143103 | 82 | 12 | 0.9 | 2.6 | 0.00 | 0.02 | 0.00 | 75 | 1014.6 |
| 20260906142552 | 81 | 61 | 0.9 | 2.6 | 0.00 | 0.02 | 0.00 | 76 | 1014.7 |
| 20260906142054 | 81 | 0 | 0.0 | 0.0 | 0.00 | 0.02 | 0.00 | 78 | 1014.6 |
| 20260906141601 | 81 | 0 | 0.0 | 0.0 | 0.00 | 0.02 | 0.00 | 77 | 1014.6 |
| 20260906141052 | 80 | 0 | 0.0 | 0.0 | 0.00 | 0.02 | 0.00 | 79 | 1014.6 |
| 20260906140553 | 80 | 0 | 0.0 | 0.0 | 0.00 | 0.02 | 0.00 | 79 | 1014.6 |
| 20260906140107 | 80 | 0 | 0.0 | 0.0 | 0.00 | 0.02 | 0.00 | 79 | 1014.7 |
| 20260906135554 | 79 | 0 | 0.0 | 0.0 | 0.00 | 0.02 | 0.00 | 81 | 1014.7 |
| 20260906135054 | 79 | 0 | 0.0 | 0.0 | 0.00 | 0.02 | 0.00 | 81 | 1014.8 |
| 20260906134557 | 79 | 0 | 0.0 | 0.0 | 0.00 | 0.02 | 0.00 | 82 | 1014.7 |
| 20260906134053 | 78 | 0 | 0.0 | 0.0 | 0.00 | 0.02 | 0.00 | 84 | 1014.8 |
| 20260906133552 | 78 | 0 | 0.0 | 0.0 | 0.00 | 0.02 | 0.00 | 84 | 1015.0 |
| 20260906133132 | 77 | 0 | 0.0 | 0.0 | 0.00 | 0.02 | 0.00 | 85 | 1014.9 |
| 20260906132554 | 77 | 0 | 0.0 | 0.0 | 0.00 | 0.02 | 0.00 | 86 | 1014.9 |
| 20260906132054 | 76 | 0 | 0.0 | 0.0 | 0.00 | 0.02 | 0.00 | 87 | 1015.0 |
| 20260906131616 | 75 | 0 | 0.0 | 0.0 | 0.00 | 0.02 | 0.00 | 88 | 1015.1 |
| 20260906131053 | 75 | 0 | 0.0 | 0.0 | 0.00 | 0.02 | 0.00 | 89 | 1015.0 |
| 20260906130557 | 75 | 0 | 0.0 | 0.0 | 0.00 | 0.02 | 0.00 | 89 | 1015.0 |
| 20260906130113 | 74 | 0 | 0.0 | 0.0 | 0.00 | 0.02 | 0.00 | 90 | 1015.1 |
| 20260906125557 | 74 | 0 | 0.0 | 0.0 | 0.00 | 0.02 | 0.00 | 90 | 1014.9 |
| 20260906125054 | 74 | 0 | 0.0 | 0.0 | 0.00 | 0.02 | 0.00 | 90 | 1015.0 |
| 20260906124559 | 74 | 0 | 0.0 | 0.0 | 0.00 | 0.02 | 0.00 | 90 | 1014.9 |
| 20260906124052 | 74 | 0 | 0.0 | 0.0 | 0.00 | 0.02 | 0.00 | 90 | 1014.9 |
| 20260906123553 | 74 | 0 | 0.0 | 0.0 | 0.00 | 0.02 | 0.00 | 90 | 1014.9 |
| 20260906123105 | 74 | 0 | 0.0 | 0.0 | 0.00 | 0.02 | 0.00 | 89 | 1014.8 |
| 20260906122556 | 74 | 0 | 0.0 | 0.0 | 0.00 | 0.02 | 0.00 | 90 | 1014.9 |
| 20260906122053 | 74 | 0 | 0.0 | 0.0 | 0.00 | 0.02 | 0.00 | 90 | 1014.7 |
| 20260906121603 | 74 | 0 | 0.0 | 0.0 | 0.00 | 0.02 | 0.00 | 90 | 1014.9 |
| 20260906121052 | 74 | 0 | 0.0 | 0.0 | 0.00 | 0.02 | 0.00 | 90 | 1014.7 |
| 20260906120552 | 74 | 0 | 0.0 | 0.0 | 0.00 | 0.02 | 0.00 | 90 | 1014.6 |
| 20260906120104 | 74 | 0 | 0.0 | 0.0 | 0.00 | 0.02 | 0.00 | 90 | 1014.6 |
| 20260906115552 | 74 | 0 | 0.0 | 0.0 | 0.00 | 0.02 | 0.00 | 90 | 1014.5 |
| 20260906115053 | 74 | 0 | 0.0 | 0.0 | 0.00 | 0.02 | 0.00 | 90 | 1014.2 |
| 20260906114604 | 74 | 0 | 0.0 | 0.0 | 0.00 | 0.02 | 0.00 | 90 | 1014.3 |
| 20260906114052 | 74 | 0 | 0.0 | 0.0 | 0.00 | 0.02 | 0.00 | 90 | 1014.3 |
| 20260906113554 | 74 | 0 | 0.0 | 0.0 | 0.00 | 0.02 | 0.00 | 89 | 1014.3 |
| 20260906113058 | 74 | 0 | 0.0 | 0.0 | 0.00 | 0.02 | 0.00 | 90 | 1014.3 |
| 20260906112554 | 74 | 0 | 0.0 | 0.0 | 0.00 | 0.02 | 0.00 | 89 | 1014.2 |
| 20260906112052 | 74 | 0 | 0.0 | 0.0 | 0.00 | 0.02 | 0.00 | 89 | 1014.1 |
| 20260906111600 | 74 | 0 | 0.0 | 0.0 | 0.00 | 0.02 | 0.00 | 89 | 1014.0 |
| 20260906111052 | 74 | 0 | 0.0 | 0.0 | 0.00 | 0.02 | 0.00 | 88 | 1013.9 |
| 20260906110554 | 74 | 0 | 0.0 | 0.0 | 0.00 | 0.02 | 0.00 | 88 | 1013.8 |
| 20260906110058 | 74 | 0 | 0.0 | 0.0 | 0.00 | 0.02 | 0.00 | 88 | 1013.6 |
| 20260906105549 | 74 | 0 | 0.0 | 0.0 | 0.00 | 0.02 | 0.00 | 88 | 1013.7 |
| 20260906105053 | 74 | 0 | 0.0 | 0.0 | 0.00 | 0.02 | 0.00 | 88 | 1013.7 |
| 20260906104559 | 74 | 0 | 0.0 | 0.0 | 0.00 | 0.02 | 0.00 | 89 | 1013.7 |
| 20260906104052 | 74 | 0 | 0.0 | 0.0 | 0.00 | 0.02 | 0.00 | 89 | 1013.7 |
| 20260906103552 | 74 | 0 | 0.0 | 0.0 | 0.00 | 0.02 | 0.00 | 88 | 1013.8 |
| 20260906103100 | 74 | 0 | 0.0 | 0.0 | 0.00 | 0.02 | 0.00 | 88 | 1013.7 |
| 20260906102553 | 74 | 0 | 0.0 | 0.0 | 0.00 | 0.02 | 0.00 | 88 | 1013.7 |
| 20260906102052 | 75 | 0 | 0.0 | 0.0 | 0.00 | 0.02 | 0.00 | 89 | 1013.7 |
| 20260906101559 | 75 | 0 | 0.0 | 0.0 | 0.00 | 0.02 | 0.00 | 89 | 1013.6 |
| 20260906101052 | 75 | 0 | 0.0 | 0.0 | 0.00 | 0.02 | 0.00 | 89 | 1013.7 |
| 20260906100552 | 75 | 0 | 0.0 | 0.0 | 0.00 | 0.02 | 0.00 | 89 | 1013.7 |
| 20260906100111 | 75 | 0 | 0.0 | 0.0 | 0.00 | 0.02 | 0.00 | 88 | 1013.8 |
| 20260906095556 | 75 | 0 | 0.0 | 0.0 | 0.00 | 0.02 | 0.00 | 88 | 1013.7 |
| 20260906095053 | 75 | 0 | 0.0 | 0.0 | 0.00 | 0.02 | 0.00 | 88 | 1013.7 |
| 20260906094616 | 75 | 0 | 0.0 | 0.0 | 0.00 | 0.02 | 0.00 | 88 | 1013.6 |
| 20260906094052 | 75 | 0 | 0.0 | 0.0 | 0.00 | 0.02 | 0.00 | 89 | 1013.7 |
| 20260906093555 | 75 | 0 | 0.0 | 0.0 | 0.00 | 0.02 | 0.00 | 89 | 1013.8 |
| 20260906093100 | 75 | 0 | 0.0 | 0.0 | 0.00 | 0.02 | 0.00 | 89 | 1013.9 |
| 20260906092554 | 75 | 0 | 0.0 | 0.0 | 0.00 | 0.02 | 0.00 | 88 | 1014.1 |
| 20260906092052 | 75 | 0 | 0.0 | 0.0 | 0.00 | 0.02 | 0.00 | 88 | 1014.1 |
| 20260906091601 | 75 | 0 | 0.0 | 1.7 | 0.00 | 0.02 | 0.00 | 89 | 1014.1 |
| 20260906091054 | 75 | 0 | 0.0 | 1.7 | 0.00 | 0.02 | 0.00 | 88 | 1014.1 |
| 20260906090552 | 75 | 352 | 0.0 | 1.7 | 0.00 | 0.02 | 0.00 | 88 | 1014.2 |
| 20260906090115 | 75 | 0 | 0.0 | 1.7 | 0.00 | 0.02 | 0.00 | 88 | 1014.2 |
| 20260906085554 | 75 | 0 | 0.0 | 1.7 | 0.00 | 0.02 | 0.00 | 88 | 1014.2 |
| 20260906085055 | 75 | 352 | 0.0 | 1.7 | 0.00 | 0.02 | 0.00 | 88 | 1014.3 |
| 20260906084602 | 75 | 0 | 0.0 | 0.9 | 0.00 | 0.02 | 0.00 | 88 | 1014.3 |
| 20260906084053 | 75 | 0 | 0.0 | 1.7 | 0.00 | 0.02 | 0.00 | 88 | 1014.3 |
| 20260906083553 | 75 | 0 | 0.0 | 2.6 | 0.00 | 0.02 | 0.00 | 88 | 1014.5 |
| 20260906083103 | 75 | 0 | 0.0 | 2.6 | 0.00 | 0.02 | 0.00 | 88 | 1014.6 |
| 20260906082552 | 75 | 0 | 0.0 | 2.6 | 0.00 | 0.02 | 0.00 | 88 | 1014.3 |
| 20260906082053 | 75 | 5 | 0.0 | 2.6 | 0.00 | 0.02 | 0.00 | 88 | 1014.4 |
| 20260906081601 | 75 | 5 | 0.0 | 2.6 | 0.00 | 0.02 | 0.00 | 88 | 1014.3 |
| 20260906081052 | 75 | 0 | 0.0 | 1.7 | 0.00 | 0.02 | 0.00 | 88 | 1014.2 |
| 20260906080552 | 75 | 0 | 0.0 | 1.7 | 0.00 | 0.02 | 0.00 | 89 | 1014.1 |
| 20260906080105 | 74 | 0 | 0.0 | 1.7 | 0.00 | 0.02 | 0.00 | 89 | 1014.0 |
| 20260906075552 | 74 | 0 | 0.0 | 1.7 | 0.00 | 0.02 | 0.00 | 89 | 1014.0 |
| 20260906075053 | 74 | 0 | 0.0 | 1.7 | 0.00 | 0.02 | 0.00 | 89 | 1013.8 |
| 20260906074610 | 74 | 0 | 0.0 | 1.7 | 0.00 | 0.02 | 0.00 | 89 | 1013.8 |
| 20260906074052 | 74 | 5 | 0.0 | 0.9 | 0.00 | 0.02 | 0.00 | 89 | 1013.8 |
| 20260906073552 | 74 | 0 | 0.0 | 0.9 | 0.00 | 0.02 | 0.00 | 89 | 1013.8 |
| 20260906073104 | 74 | 0 | 0.0 | 1.7 | 0.00 | 0.02 | 0.00 | 89 | 1013.8 |
| 20260906072552 | 74 | 0 | 0.0 | 1.7 | 0.00 | 0.02 | 0.00 | 89 | 1013.6 |
| 20260906072052 | 74 | 0 | 0.0 | 3.5 | 0.00 | 0.02 | 0.00 | 89 | 1013.7 |
| 20260906071602 | 74 | 0 | 0.0 | 3.5 | 0.00 | 0.02 | 0.00 | 89 | 1013.7 |
| 20260906071049 | 74 | 0 | 0.0 | 3.5 | 0.00 | 0.02 | 0.00 | 90 | 1014.0 |
| 20260906070549 | 74 | 0 | 0.0 | 1.7 | 0.00 | 0.02 | 0.00 | 90 | 1014.1 |
| 20260906070107 | 74 | 0 | 0.0 | 1.7 | 0.00 | 0.02 | 0.00 | 89 | 1013.9 |
| 20260906065555 | 74 | 0 | 0.0 | 1.7 | 0.00 | 0.02 | 0.00 | 89 | 1013.8 |
| 20260906065053 | 74 | 0 | 0.0 | 1.7 | 0.00 | 0.02 | 0.00 | 89 | 1013.9 |
| 20260906064602 | 74 | 0 | 0.0 | 1.7 | 0.00 | 0.02 | 0.00 | 89 | 1014.0 |
| 20260906064052 | 74 | 352 | 0.0 | 0.9 | 0.00 | 0.02 | 0.00 | 89 | 1014.1 |
| 20260906063551 | 74 | 0 | 0.0 | 0.0 | 0.00 | 0.02 | 0.00 | 89 | 1014.2 |
| 20260906063103 | 74 | 0 | 0.0 | 0.0 | 0.00 | 0.02 | 0.00 | 89 | 1014.3 |
| 20260906062551 | 74 | 0 | 0.0 | 1.7 | 0.00 | 0.02 | 0.00 | 89 | 1014.3 |
| 20260906062048 | 74 | 0 | 0.0 | 1.7 | 0.00 | 0.02 | 0.00 | 89 | 1014.2 |
| 20260906061602 | 74 | 0 | 0.0 | 1.7 | 0.00 | 0.02 | 0.00 | 88 | 1014.1 |
| 20260906061056 | 74 | 352 | 0.0 | 1.7 | 0.00 | 0.02 | 0.00 | 89 | 1014.2 |
| 20260906060552 | 74 | 0 | 0.0 | 0.9 | 0.00 | 0.02 | 0.00 | 89 | 1014.2 |
| 20260906060108 | 74 | 0 | 0.0 | 0.9 | 0.00 | 0.02 | 0.00 | 88 | 1014.2 |
| 20260906055552 | 74 | 0 | 0.0 | 0.9 | 0.00 | 0.02 | 0.00 | 89 | 1014.2 |
| 20260906055052 | 74 | 0 | 0.0 | 0.0 | 0.00 | 0.02 | 0.00 | 89 | 1014.1 |
| 20260906054605 | 74 | 0 | 0.0 | 0.0 | 0.00 | 0.02 | 0.00 | 88 | 1014.1 |
| 20260906054049 | 74 | 0 | 0.0 | 1.7 | 0.00 | 0.02 | 0.00 | 88 | 1014.0 |
| 20260906053553 | 74 | 0 | 0.0 | 1.7 | 0.00 | 0.02 | 0.00 | 88 | 1014.1 |
| 20260906053102 | 74 | 352 | 0.0 | 1.7 | 0.00 | 0.02 | 0.00 | 88 | 1014.0 |
| 20260906052555 | 74 | 0 | 0.0 | 0.9 | 0.00 | 0.02 | 0.00 | 88 | 1014.1 |
| 20260906052056 | 74 | 0 | 0.0 | 0.0 | 0.00 | 0.02 | 0.00 | 88 | 1014.1 |
| 20260906051602 | 74 | 0 | 0.0 | 0.0 | 0.00 | 0.02 | 0.00 | 88 | 1014.0 |
| 20260906051052 | 74 | 0 | 0.0 | 0.0 | 0.00 | 0.02 | 0.00 | 88 | 1014.1 |
| 20260906050549 | 75 | 0 | 0.0 | 0.0 | 0.00 | 0.02 | 0.00 | 87 | 1014.1 |
| 20260906050107 | 75 | 0 | 0.0 | 0.0 | 0.00 | 0.02 | 0.00 | 87 | 1014.2 |
| 20260906045548 | 75 | 0 | 0.0 | 0.0 | 0.00 | 0.02 | 0.00 | 87 | 1014.3 |
| 20260906045049 | 75 | 0 | 0.0 | 0.0 | 0.00 | 0.02 | 0.00 | 86 | 1014.4 |
| 20260906044600 | 75 | 0 | 0.0 | 0.0 | 0.00 | 0.02 | 0.00 | 86 | 1014.5 |
| 20260906044051 | 75 | 0 | 0.0 | 0.9 | 0.00 | 0.02 | 0.00 | 86 | 1014.6 |
| 20260906043552 | 75 | 0 | 0.0 | 0.9 | 0.00 | 0.02 | 0.00 | 86 | 1014.5 |
| 20260906043101 | 75 | 0 | 0.0 | 0.9 | 0.00 | 0.02 | 0.00 | 86 | 1014.5 |
| 20260906042553 | 75 | 352 | 0.0 | 0.9 | 0.00 | 0.02 | 0.00 | 86 | 1014.5 |
| 20260906042052 | 75 | 0 | 0.0 | 0.0 | 0.00 | 0.02 | 0.00 | 86 | 1014.5 |
| 20260906041604 | 75 | 0 | 0.0 | 0.0 | 0.00 | 0.02 | 0.00 | 85 | 1014.6 |
| 20260906041052 | 75 | 0 | 0.0 | 0.0 | 0.00 | 0.02 | 0.00 | 85 | 1014.5 |
| 20260906040552 | 75 | 0 | 0.0 | 0.0 | 0.00 | 0.02 | 0.00 | 85 | 1014.6 |
| 20260906035552 | 76 | 0 | 0.0 | 0.0 | 0.00 | 0.02 | 0.02 | 85 | 1014.6 |
| 20260906035049 | 76 | 0 | 0.0 | 0.9 | 0.00 | 0.02 | 0.02 | 85 | 1014.8 |
| 20260906034602 | 76 | 0 | 0.0 | 0.9 | 0.00 | 0.02 | 0.02 | 85 | 1014.5 |
| 20260906034053 | 76 | 0 | 0.0 | 0.9 | 0.00 | 0.02 | 0.02 | 84 | 1014.6 |
| 20260906033556 | 76 | 352 | 0.0 | 0.9 | 0.00 | 0.02 | 0.02 | 84 | 1014.7 |
| 20260906033102 | 76 | 0 | 0.0 | 0.9 | 0.00 | 0.02 | 0.02 | 84 | 1014.6 |
| 20260906032552 | 76 | 0 | 0.0 | 1.7 | 0.00 | 0.02 | 0.02 | 83 | 1014.7 |
| 20260906032052 | 76 | 0 | 0.0 | 1.7 | 0.00 | 0.02 | 0.02 | 83 | 1014.7 |
| 20260906031603 | 76 | 0 | 0.0 | 1.7 | 0.00 | 0.02 | 0.02 | 83 | 1014.5 |
| 20260906031052 | 76 | 0 | 0.0 | 0.9 | 0.00 | 0.02 | 0.02 | 83 | 1014.7 |
| 20260906030552 | 76 | 0 | 0.0 | 0.9 | 0.00 | 0.02 | 0.02 | 83 | 1014.6 |
| 20260906025552 | 77 | 0 | 0.0 | 0.0 | 0.00 | 0.02 | 0.02 | 83 | 1014.6 |
| 20260906025052 | 77 | 0 | 0.0 | 0.0 | 0.00 | 0.02 | 0.02 | 83 | 1014.6 |
| 20260906024607 | 77 | 0 | 0.0 | 0.0 | 0.00 | 0.02 | 0.02 | 83 | 1014.5 |
| 20260906024051 | 77 | 0 | 0.0 | 0.0 | 0.00 | 0.02 | 0.02 | 82 | 1014.2 |
| 20260906023549 | 77 | 0 | 0.0 | 0.0 | 0.00 | 0.02 | 0.02 | 82 | 1014.2 |
| 20260906023103 | 77 | 0 | 0.0 | 0.0 | 0.00 | 0.02 | 0.02 | 81 | 1014.1 |
| 20260906022555 | 77 | 0 | 0.0 | 0.0 | 0.00 | 0.02 | 0.02 | 81 | 1014.0 |
| 20260906022055 | 78 | 0 | 0.0 | 0.0 | 0.00 | 0.02 | 0.02 | 81 | 1014.0 |
| 20260906021607 | 78 | 0 | 0.0 | 0.0 | 0.00 | 0.02 | 0.02 | 80 | 1014.2 |
| 20260906021055 | 78 | 0 | 0.0 | 0.0 | 0.00 | 0.02 | 0.02 | 80 | 1014.1 |
| 20260906020552 | 78 | 0 | 0.0 | 0.0 | 0.00 | 0.02 | 0.02 | 80 | 1014.1 |
| 20260906020104 | 78 | 0 | 0.0 | 0.0 | 0.00 | 0.02 | 0.02 | 79 | 1014.1 |
| 20260906015551 | 78 | 0 | 0.0 | 0.0 | 0.00 | 0.02 | 0.02 | 80 | 1014.0 |
| 20260906015049 | 79 | 0 | 0.0 | 0.0 | 0.00 | 0.02 | 0.02 | 79 | 1013.9 |
| 20260906014611 | 79 | 0 | 0.0 | 0.0 | 0.00 | 0.02 | 0.02 | 79 | 1013.7 |
| 20260906014051 | 79 | 0 | 0.0 | 1.7 | 0.00 | 0.02 | 0.02 | 79 | 1013.8 |
| 20260906013554 | 79 | 0 | 0.0 | 1.7 | 0.00 | 0.02 | 0.02 | 78 | 1013.6 |
| 20260906013106 | 79 | 0 | 0.0 | 1.7 | 0.00 | 0.02 | 0.02 | 77 | 1013.5 |
| 20260906012550 | 79 | 352 | 0.0 | 2.6 | 0.00 | 0.02 | 0.02 | 77 | 1013.5 |
| 20260906012049 | 79 | 352 | 0.0 | 2.6 | 0.00 | 0.02 | 0.02 | 77 | 1013.4 |
| 20260906011619 | 80 | 352 | 1.7 | 2.6 | 0.00 | 0.02 | 0.02 | 76 | 1013.5 |
| 20260906011048 | 80 | 323 | 0.9 | 2.6 | 0.00 | 0.02 | 0.02 | 77 | 1013.5 |
| 20260906010548 | 80 | 0 | 0.0 | 0.9 | 0.00 | 0.02 | 0.02 | 76 | 1013.6 |
| 20260906010105 | 80 | 0 | 0.0 | 0.9 | 0.00 | 0.02 | 0.02 | 75 | 1013.4 |
| 20260906005548 | 80 | 0 | 0.0 | 0.9 | 0.00 | 0.02 | 0.02 | 75 | 1013.4 |
| 20260906005052 | 80 | 0 | 0.0 | 0.9 | 0.00 | 0.02 | 0.02 | 75 | 1013.4 |
| 20260906004605 | 81 | 0 | 0.0 | 0.0 | 0.00 | 0.02 | 0.02 | 75 | 1013.4 |
| 20260906004052 | 81 | 0 | 0.0 | 0.0 | 0.00 | 0.02 | 0.02 | 74 | 1013.3 |
| 20260906003549 | 81 | 0 | 0.0 | 0.0 | 0.00 | 0.02 | 0.02 | 74 | 1013.3 |
| 20260906003111 | 81 | 0 | 0.0 | 0.0 | 0.00 | 0.02 | 0.02 | 74 | 1013.2 |
| 20260906002552 | 81 | 0 | 0.0 | 0.0 | 0.00 | 0.02 | 0.02 | 73 | 1013.1 |
| 20260906002055 | 82 | 0 | 0.0 | 0.9 | 0.00 | 0.02 | 0.02 | 73 | 1013.1 |
| 20260906001604 | 82 | 0 | 0.0 | 2.6 | 0.00 | 0.02 | 0.02 | 71 | 1013.0 |
| 20260906001054 | 83 | 0 | 0.9 | 2.6 | 0.00 | 0.02 | 0.02 | 71 | 1013.1 |
| 20260906000551 | 83 | 68 | 0.9 | 2.6 | 0.00 | 0.02 | 0.02 | 71 | 1013.1 |
| 20260905235552 | 83 | 5 | 0.0 | 0.9 | 0.00 | 0.02 | 0.02 | 69 | 1013.5 |
| 20260905235057 | 83 | 0 | 0.0 | 0.9 | 0.00 | 0.02 | 0.02 | 69 | 1013.4 |
| 20260905234603 | 83 | 0 | 0.0 | 1.7 | 0.00 | 0.02 | 0.02 | 68 | 1013.2 |
| 20260905234054 | 84 | 0 | 0.0 | 1.7 | 0.00 | 0.02 | 0.02 | 68 | 1013.5 |
| 20260905233554 | 84 | 0 | 0.0 | 1.7 | 0.00 | 0.02 | 0.02 | 67 | 1013.6 |
| 20260905233121 | 84 | 0 | 0.0 | 1.7 | 0.00 | 0.02 | 0.02 | 68 | 1013.5 |
| 20260905232553 | 84 | 0 | 0.0 | 0.9 | 0.00 | 0.02 | 0.02 | 68 | 1013.6 |
| 20260905232053 | 84 | 0 | 0.0 | 0.9 | 0.00 | 0.02 | 0.02 | 68 | 1013.4 |
| 20260905231602 | 85 | 0 | 0.0 | 0.9 | 0.00 | 0.02 | 0.02 | 67 | 1013.1 |
| 20260905231054 | 85 | 0 | 0.0 | 1.7 | 0.00 | 0.02 | 0.02 | 67 | 1012.9 |
| 20260905230556 | 85 | 0 | 0.0 | 7.0 | 0.00 | 0.02 | 0.02 | 65 | 1012.9 |
| 20260905230103 | 85 | 0 | 1.7 | 7.0 | 0.00 | 0.02 | 0.02 | 64 | 1012.9 |
| 20260905225553 | 85 | 113 | 2.6 | 7.0 | 0.00 | 0.02 | 0.02 | 64 | 1012.8 |
| 20260905225054 | 85 | 102 | 3.5 | 7.0 | 0.00 | 0.02 | 0.02 | 64 | 1012.7 |
| 20260905224625 | 86 | 104 | 2.6 | 7.0 | 0.00 | 0.02 | 0.02 | 63 | 1013.0 |
| 20260905224053 | 86 | 78 | 1.7 | 6.1 | 0.00 | 0.02 | 0.02 | 63 | 1013.0 |
| 20260905223553 | 86 | 77 | 0.9 | 6.1 | 0.00 | 0.02 | 0.02 | 63 | 1013.0 |
| 20260905223107 | 86 | 70 | 0.9 | 5.2 | 0.00 | 0.02 | 0.02 | 63 | 1013.1 |
| 20260905222553 | 86 | 71 | 1.7 | 6.1 | 0.00 | 0.02 | 0.02 | 63 | 1013.1 |
| 20260905222053 | 87 | 82 | 1.7 | 7.8 | 0.00 | 0.02 | 0.02 | 63 | 1013.3 |
| 20260905221559 | 87 | 53 | 2.6 | 7.8 | 0.00 | 0.02 | 0.02 | 62 | 1013.2 |
| 20260905221054 | 87 | 64 | 2.6 | 6.1 | 0.00 | 0.02 | 0.02 | 63 | 1013.3 |